Погода в Орде

Россия / Пермский край     57°11′45″N   56°54′21″E
темп.,
°C
ветер,
м/с
пор.,
м/с
влажн.,
%
обл.,
%
осадки,
мм/ч
давл.,
гПа
погр.,
м
21 апреля, ср
ср2123:00+3ссз22575 0.0 103211
02:00+2зсз11600 0.0 103210
05:00+1вюв11610 0.0 103210
08:00+4юз22550 0.0 1033133
11:00+8ю22411 0.0 1032672
14:00+11ю343572 0.0 10311184
17:00+12ююв453499 0.0 10301292
20:00+9ююв3452100 0.0 103061
22 апреля, чт
чт2223:00+6юв4960100 0.0 1030146
02:00+6ююв41259100 0.0 1029230
05:00+5ююв41265100 0.0 1030264
08:00+6ю61262100 0.0 1030826
11:00+7ю81362100 0.0 10301045
14:00+5ю71493100 0.6 1031929
17:00+4ю61192100 1.0 1031946
20:00+5ю61185100 0.0 1031860
23 апреля, пт
пт2323:00+5ююз41088100 0.0 1031726
02:00+5ю41084100 0.0 1030548
05:00+2ю51097100 2.0 1030523
08:00+2ю41097100 1.1 1031408
11:00+3ю3899100 1.4 1030474
14:00+3ю3597100 0.1 1030524
17:00+4ю2496100 0.1 1031450
20:00+4ююв2292100 0.0 103064
24 апреля, сб
сб2423:00+4в2292100 0.0 102956
02:00+3всв3592100 0.0 1027113
05:00+2всв3796100 0.0 1026154
08:00+4всв4792100 0.0 1024230
11:00+6вюв4788100 0.0 1022438
14:00+6вюв4895100 0.3 1020402
17:00+6вюв4892100 1.1 1019423
20:00+6в51189100 0.0 1018493
25 апреля, вс
вс2523:00+6вюв51289100 0.0 1016342
02:00+4вюв51089100 0.0 1015464
05:00+4вюв4896100 0.4 1014744
08:00+4вюв4897100 0.3 1013504
11:00+5юв4988100 0.4 1012426
14:00+6ююв4887100 0.3 1012630
17:00+9ююв5871100 0.4 1010929
20:00+5юз71292100 2.4 1012864